Showing default

RAPTOR1, 58957

Orbit data source: Space-Track

RAPTOR1, 58957 is a payload satellite owned by SDA (US) in LEO that was launched on Wed, 14 Feb 2024 UTC via an FALCON 9 launch vehicle from the Air Force Eastern Test Range (AFETR). Payload-class satellites include a variety of spacecraft equipped with specific instruments for various scientific and technological missions. These include communications satellites like Starlink; space stations such as the ISS; scientific satellites like the Hubble; Earth observation satellites from companies like Planet Labs, Umbra, and HawkEye 360; GPS; miniature CubeSats for education and research; and military/defense satellites.

Loading next visibility...
Identifier
58957, 2024-028C
Orbit
LEO
Country
Flag of USUS
Related business
Manufacturer
L3Harris SIS
Mission
Operational Defense Early Warn
Bus & Motor
TPL0-L3H, Unknown motor
Mass
~1,000 kg wet, ~1,000 kg dry
Launch date (UTC)
2024-02-14 (3 years ago)
Launch vehicle
FALCON 9
Launch site
Air Force Eastern Test Range (AFETR)
Object type
Payload
Rocket body
Debris
Shape & HBR
Box + 1 Pan, 1.0 m
Radar Cross Section
0.945 m², Large (>1 m²)

Expand to show TLE details & history
Last TLE update: 8 hours ago

TLE from 8 hours ago
0 RAPTOR1
1 58957U 24028C   26258.26983439 -.00000040  00000-0  40714-4 0  9992
2 58957  39.9922 348.0125 0010905  51.9316 308.2414 13.74247776129443
Epoch: 2026-09-15T06:28Z
TLE epoch observation values (Epoch: 2026-09-15T06:28:33.691Z)
Latitude
-0.00003°
Longitude
-103.36611°
Altitude
978.877 km
Speed
7.366 km/s
True Right ascension
23h 12m 02s
True Declination
0° 00' 00"
Sunlit
Object was in full shadow at epoch
Visualization orbit readout
Latitude
Unknown
Longitude
Unknown
Altitude
Unknown
Speed
Unknown
Apparent Right ascension
Unknown
Apparent Declination
Unknown
Sunlit
N/A
Visualization observer readout
Local Sidereal Time
07:11:04
Azimuth
Unknown
Elevation
Unknown
Doppler factor
Unknown
Orbital elements
Apogee altitude
994.672 km
Perigee altitude
978.61 km
Semi-major axis
7,364.778 km
Eccentricity
0.00109
Inclination
39.9922°
RAAN
348.0125°
Arg. of periapsis
51.9316°
True anomaly
308.14317°
Mean anomaly
308.2414°
Eccentric anomaly
308.19229°
Mean motion
3.43403 °/min
Orbital period
104.83 mins
BSTAR
0.000040714
Loading maneuver chart data...
Computing Atmospheric mass density...
Loading historical data...
Loading historical data...
Loading historical data...
Loading historical data...
Loading historical data...
Loading historical data...
Loading historical data...
Other satellites on launch #28 in the year 2024 (2024-02-14 UTC)

Documentation

Showing up to 5 results
|